FW2969 Weather Reports


time (UTC)temp
C
wind
direction
speed
KPH
gust
KPH
rain 1hr
cm
rain 24hr
cm
rain mn
cm
humidity
%
barometer
mb
20260504081533 7 163 6.4 22.5 0.15 3.00 1.45 96 1014.2
20260504050012 8 189 4.8 19.3 0.00 1.60 0.08 92 1011.7
20260504044510 8 178 4.8 19.3 0.00 1.60 0.08 94 1011.8
20260504043010 7 161 3.2 19.3 0.00 1.60 0.08 95 1011.8
20260504041508 7 179 6.4 22.5 0.00 1.60 0.08 95 1012.1
20260504040008 7 169 6.4 19.3 0.00 1.60 0.08 96 1011.9
20260504034504 7 181 4.8 14.5 0.00 1.60 0.08 96 1011.8
20260504033002 7 186 3.2 16.1 0.00 1.60 0.08 97 1011.8
20260504031629 6 151 3.2 14.5 0.00 1.60 0.08 96 1011.6
20260504030057 6 175 3.2 8.0 0.00 1.60 0.08 97 1011.5
20260504024556 6 94 0.0 6.4 0.00 1.60 0.08 96 1011.5
20260504023055 6 172 0.0 8.0 0.00 1.60 0.08 96 1011.5
20260504021605 6 155 0.0 9.7 0.00 1.60 0.08 96 1011.6
20260504020051 7 156 1.6 8.0 0.00 1.60 0.08 96 1011.6
20260504014549 7 223 3.2 12.9 0.00 1.60 0.08 97 1011.4
20260504013054 7 119 3.2 8.0 0.00 1.60 0.08 97 1011.4
20260504011550 7 222 1.6 8.0 0.00 1.60 0.08 97 1011.4
20260504010046 7 217 0.0 9.7 0.00 1.60 0.08 97 1011.5
20260504004545 7 201 3.2 8.0 0.00 1.60 0.08 97 1011.5
20260504003047 7 201 0.0 9.7 0.00 1.60 0.08 97 1011.4
20260504001556 7 195 3.2 16.1 0.00 1.60 0.08 97 1011.6
20260504000040 7 192 1.6 12.9 0.00 1.60 0.08 97 1011.5
20260503234538 7 178 3.2 14.5 0.00 1.60 0.08 97 1011.6
20260503233038 7 209 4.8 14.5 0.05 1.60 0.08 97 1011.6
20260503231546 8 205 4.8 14.5 0.08 1.60 0.08 97 1011.7
20260503230041 8 261 0.0 12.9 0.08 1.60 0.08 97 1011.7
20260503224535 8 222 4.8 16.1 0.08 1.60 0.08 97 1011.7
20260503223038 8 186 3.2 11.3 0.03 1.55 0.03 97 1011.6
20260503221535 7 152 1.6 11.3 0.00 1.52 0.00 97 1011.5
20260503220038 7 186 1.6 9.7 0.00 1.52 0.00 97 1011.6
20260503214535 7 245 6.4 14.5 0.00 1.52 0.00 97 1011.7
20260503213047 8 218 1.6 12.9 0.00 1.52 0.00 97 1011.9
20260503211532 8 281 11.3 20.9 0.00 1.52 0.00 97 1011.8
20260503210024 8 237 8.0 22.5 0.00 1.52 0.00 97 1011.6
20260503204521 8 224 8.0 24.1 0.00 1.52 1.52 97 1011.4
20260503203023 9 209 6.4 20.9 0.03 1.52 1.52 98 1011.4
20260503201520 9 220 4.8 14.5 0.03 1.52 1.52 98 1011.3
20260503200016 9 205 8.0 19.3 0.03 1.52 1.52 98 1011.1
20260503194521 9 211 6.4 20.9 0.03 1.52 1.52 98 1011.3
20260503193014 9 225 4.8 19.3 0.00 1.50 1.50 98 1011.3
20260503191511 9 224 3.2 17.7 0.00 1.50 1.50 98 1011.2
20260503190011 9 228 3.2 12.9 0.13 1.50 1.50 98 1011.1
20260503184505 9 228 8.0 20.9 0.13 1.50 1.50 97 1011.1
20260503183042 9 228 8.0 24.1 0.58 1.50 1.50 97 1011.0
20260503181531 9 263 12.9 29.0 0.66 1.50 1.50 97 1010.6
20260503180037 10 216 12.9 30.6 0.53 1.37 1.37 98 1010.2
20260503174545 10 208 12.9 25.7 0.53 1.37 1.37 97 1010.3
20260503173002 10 213 6.4 16.1 0.08 0.91 0.91 97 1009.9
20260503171516 10 211 1.6 16.1 0.00 0.84 0.84 98 1009.9